Regional Weather Roundup
Issued by NWS

Home | Current Version | Previous Version | Text Only | Print | Product List | Glossary On
Versions: 1 2 3 4 5 6 7 8 9 10 11 12 13 14 15 16 17 18 19 20 21 22 23 24 25 26 27 28 29 30 31 32 33 34 35 36 37 38 39 40 41 42 43 44 45 46 47 48 49 50
000
ASUS44 KJAN 230310
RWRMS

MISSISSIPPI HOURLY WEATHER ROUNDUP
NATIONAL WEATHER SERVICE JACKSON MS
1000 PM CDT SAT JUL 22 2017

NOTE: "FAIR: INDICATES FEW OR NO CLOUDS BELOW 12,000 FEET WITH NO
SIGNIFICANT WEATHER AND/OR OBSTRUCTIONS TO VISIBILITY.

MSZ001>002-007>008-010>013-018>021-025>028-034>036-230400-
NORTHWEST MISSISSIPPI

CITY           SKY/WX    TMP DP  RH WIND       PRES   REMARKS
BATESVILLE     FAIR      77  75  93 CALM      29.94S
CLARKSDALE       N/A     82  77  83 S9        29.92S HX  91
CLEVELAND      FAIR      76  76 100 S6        29.92F
GREENWOOD      CLEAR     78  74  87 S9        29.94S
GREENVILLE     CLEAR     76  73  91 S6        29.93F
OXFORD         FAIR      77  75  94 CALM      29.96S
TUNICA           N/A     79  73  83 S5        29.93R
WINONA         FAIR      79  75  89 SW6       29.96R
$$

MSZ003>006-009-014>017-022>024-029>033-037>039-230400-
NORTHEAST MISSISSIPPI

CITY           SKY/WX    TMP DP  RH WIND       PRES   REMARKS
COLUMBUS AFB   NOT AVBL
GOLDN TRIANGLE PTCLDY    82  72  69 S7        29.91S
STARKVILLE     FAIR      79  75  89 CALM      29.96R
TUPELO         CLOUDY    78  72  81 CALM      29.94S
$$

MSZ040-058-230400-
CENTRAL MISSISSIPPI

CITY           SKY/WX    TMP DP  RH WIND       PRES   REMARKS
JACKSON INTL   PTCLDY    76  74  93 S6        29.97F
JACKSON HAWKNS CLEAR     76  76 100 SW3       29.97F
MADISON        FAIR      72  72 100 S3        29.96F
MERIDIAN KEY   CLEAR     79  73  82 S7        29.98S
MERIDIAN NAS   CLEAR     81  69  67 W7        29.97R
RAYMOND        FAIR      75  73  94 E5        29.95F
VICKSBURG VKS    N/A     75  73  94 S3        29.91F
$$

MSZ059>079-230400-
SOUTH MISSISSIPPI

CITY           SKY/WX    TMP DP  RH WIND       PRES   REMARKS
COLUMBIA       FAIR      75  75 100 CALM      30.02S
HATTIESBURG    PTCLDY    77  75  93 W3        30.00S
LAUREL         FAIR      76  76 100 CALM      30.00R
MCCOMB         PTCLDY    73  71  93 S3        29.99F
NATCHEZ        NOT AVBL
PINE BELT      PTCLDY    75  73  94 S3        30.00R
$$

MSZ080>082-230400-
COASTAL MISSISSIPPI

CITY           SKY/WX    TMP DP  RH WIND       PRES   REMARKS
BILOXI         NOT AVBL
PASCAGOULA     PTCLDY    79  76  90 CALM      29.99R
GULFPORT       PTCLDY    78  75  90 W3        29.99R
$$

LAZ007>009-015>016-023>026-230400-
NORTHEAST LOUISIANA

CITY           SKY/WX    TMP DP  RH WIND       PRES   REMARKS
BASTROP        LGT RAIN  76  75  98 CALM      29.93F
TALLULAH/VBURG PTCLDY    74  73  97 CALM      29.94F FOG
VIDALIA        FAIR      75  74  97 SW3       29.96S
$$



USA.gov is the U.S. government's official web portal to all federal, state and local government web resources and services.